User: anonymous   Login
Location: Ajisawe
(8.4333°N, 4.3833°E)
Time: 12:04:54
(UTC+00:00)
Language:

USA 229 DEB - Orbit

View from above orbital plane
View from above orbital plane
View from above satellite
View from above satellite

Ground track
Ground track

The orbit data is extracted from the following two-line orbital elements,

1 37391U 11014B   20223.09316932 0.00000000  00000-0  00000-0 0    05
2 37391  63.4418 329.5476 0169000 358.3678   1.6322 13.40808045    00
Epoch (UTC): 10 August 2020 02:14:09
Eccentricity: 0.0169000
inclination: 63.4418°
perigee height: 980 km
apogee height: 1233 km
right ascension of ascending node: 329.5476°
argument of perigee: 358.3678°
revolutions per day: 13.40808045
mean anomaly at epoch: 1.6322°
orbit number at epoch: 0

The dashed part of the orbit path shows where the satellite is in the earth's shadow,  

DLR